This is the latest recevied weather packets stored in our database for station/object K5GHS-1. If no packets are shown the sender has not sent any weather packets the latest 10 day(s).
| Time | Temp. | Humidity | Pressure | Rain* | Wind** | Luminosity | Snow |
|---|---|---|---|---|---|---|---|
| 1777827397 | 26.11° C | 42% | 1018.8 hPa | 0 mm | - | 783 W/m² | - |
| 1777827093 | 26.67° C | 40% | 1019 hPa | 0 mm | - | 773 W/m² | - |
| 1777826790 | 26.11° C | 42% | 1019.3 hPa | 0 mm | - | 777 W/m² | - |
| 1777826487 | 26.11° C | 42% | 1019.2 hPa | 0 mm | - | 731 W/m² | - |
| 1777826184 | 25.56° C | 42% | 1019 hPa | 0 mm | - | 683 W/m² | - |
| 1777825882 | 26.11° C | 41% | 1019 hPa | 0 mm | - | 670 W/m² | - |
| 1777825579 | 25.56° C | 42% | 1019.3 hPa | 0 mm | - | 742 W/m² | - |
| 1777825276 | 26.67° C | 41% | 1019.2 hPa | 0 mm | - | 755 W/m² | - |
| 1777824973 | 26.11° C | 43% | 1019.1 hPa | 0 mm | - | 724 W/m² | - |
| 1777824669 | 25° C | 43% | 1019.3 hPa | 0 mm | - | 682 W/m² | - |
| 1777824366 | 25° C | 44% | 1019.2 hPa | 0 mm | - | 730 W/m² | - |
| 1777824061 | 25° C | 45% | 1019.2 hPa | 0 mm | - | 766 W/m² | - |
| 1777823758 | 25° C | 43% | 1019.4 hPa | 0 mm | - | 761 W/m² | - |
| 1777823456 | 25° C | 45% | 1019.4 hPa | 0 mm | - | 744 W/m² | - |
| 1777823153 | 25° C | 43% | 1019.3 hPa | 0 mm | - | 751 W/m² | - |
| 1777822850 | 24.44° C | 44% | 1019.4 hPa | 0 mm | - | 730 W/m² | - |
| 1777822548 | 24.44° C | 45% | 1019.1 hPa | 0 mm | - | 744 W/m² | - |
| 1777822245 | 23.89° C | 45% | 1019.3 hPa | 0 mm | - | 698 W/m² | - |
| 1777821943 | 23.89° C | 45% | 1019.6 hPa | 0 mm | - | 677 W/m² | - |
| 1777821640 | 23.33° C | 46% | 1019 hPa | 0 mm | - | 621 W/m² | - |
| 1777821339 | 23.89° C | 46% | 1019.4 hPa | 0 mm | - | 617 W/m² | - |
| 1777821035 | 23.33° C | 46% | 1019.3 hPa | 0 mm | - | 549 W/m² | - |
| 1777820731 | 22.78° C | 48% | 1019.1 hPa | 0 mm | - | 528 W/m² | - |
| 1777820427 | 23.33° C | 46% | 1019.2 hPa | 0 mm | - | 479 W/m² | - |
| 1777820125 | 23.33° C | 46% | 1019.2 hPa | 0 mm | - | 429 W/m² | - |
* Rain latest hour (hover to see other rain measurements)
** Current wind speed in m/s (hover to see current wind gust speed)